Iron Mountain, MI

9:04 PM CST on February 26, 2017 (GMT -0600)
Ford

Weather History for KIMT - September, 2013

Change the Weather History Date:

Saturday, September 14, 2013

  Actual Average Record
Temperature  
Mean Temperature 54 °F -  
Max Temperature 70 °F 70 °F 93 °F (1939)
Min Temperature 39 °F 45 °F 28 °F (1946)
Degree Days  
Heating Degree Days 12    
Growing Degree Days 4 (Base 50)    
Moisture  
Dew Point 44 °F    
Average Humidity 69    
Maximum Humidity 93    
Minimum Humidity 45    
Precipitation  
Precipitation 0.00 in - - ()
Sea Level Pressure  
Sea Level Pressure 30.05 in    
Wind  
Wind Speed 3 mph (SW)    
Max Wind Speed 10 mph    
Max Gust Speed 20 mph    
Visibility 10 miles    
Events      
Averages and records for this station are not official NWS values.
T = Trace of Precipitation, MM = Missing Value Source: NWS Daily Summary

Daily Weather History Graph

Daily Weather History Graph

Search for Another Location

Airport or City:

Trip Planner

Search our weather history database for the weather conditions in past years. The results will help you decide how hot, cold, wet, or windy it might be!

Date:

Astronomy

Sep. 14, 2013 Rise Set
Actual Time 6:29 AM CDT 7:05 PM CDT
Civil Twilight 5:59 AM CDT 7:35 PM CDT
Nautical Twilight 5:24 AM CDT 8:10 PM CDT
Astronomical Twilight 4:47 AM CDT 8:47 PM CDT
Moon 3:57 PM CDT (9/14) 12:48 AM CDT (9/14)
Length of Visible Light 13h 35m
Length of Day
12h 35m
Waxing Gibbous, 72% of the Moon is Illuminated
Sep 14
Waxing Gibbous
Sep 19
Full
Sep 26
Last Quarter
Oct 4
New
Oct 11
First Quarter

Hourly Weather History & Observations

Time (CDT) Temp. Windchill Dew Point Humidity Pressure Visibility Wind Dir Wind Speed Gust Speed Precip Events Conditions
12:54 AM 43.0 °F 41.3 °F 41.0 °F 93% 30.15 in - SE 3.5 mph - N/A   Clear
1:54 AM 43.0 °F - 39.9 °F 89% 30.14 in - Calm Calm - N/A   Clear
2:54 AM 42.1 °F - 39.0 °F 89% 30.13 in - Calm Calm - N/A   Clear
3:54 AM 39.9 °F - 37.0 °F 89% 30.12 in - Calm Calm - N/A   Clear
4:54 AM 39.9 °F - 37.9 °F 93% 30.12 in - Calm Calm - N/A   Clear
5:54 AM 39.0 °F - 37.0 °F 93% 30.13 in - Calm Calm - N/A   Clear
6:54 AM 39.9 °F - 37.0 °F 89% 30.14 in - Calm Calm - N/A   Clear
7:54 AM 46.9 °F - 43.0 °F 86% 30.12 in 10.0 mi Calm Calm - N/A   Clear
8:54 AM 55.0 °F - 45.0 °F 69% 30.11 in 10.0 mi West 3.5 mph - N/A   Clear
9:54 AM 60.1 °F - 44.1 °F 55% 30.10 in 10.0 mi WSW 10.4 mph 16.1 mph N/A   Clear
10:54 AM 63.0 °F - 44.1 °F 50% 30.08 in 10.0 mi WSW 9.2 mph 19.6 mph N/A   Clear
11:54 AM 64.9 °F - 44.1 °F 47% 30.06 in 10.0 mi SW 10.4 mph - N/A   Clear
12:54 PM 66.0 °F - 44.1 °F 45% 30.04 in 10.0 mi WSW 8.1 mph - N/A   Clear
1:54 PM 68.0 °F - 46.0 °F 45% 30.01 in 10.0 mi SW 10.4 mph 18.4 mph N/A   Clear
2:54 PM 68.0 °F - 46.0 °F 45% 29.99 in 10.0 mi SW 10.4 mph - N/A   Clear
3:54 PM 68.0 °F - 46.9 °F 47% 29.99 in 10.0 mi SW 6.9 mph - N/A   Clear
4:54 PM 66.9 °F - 48.0 °F 51% 29.98 in 10.0 mi South 6.9 mph - N/A   Clear
5:54 PM 64.9 °F - 48.9 °F 56% 29.99 in 10.0 mi SSW 5.8 mph - N/A   Clear
6:54 PM 61.0 °F - 50.0 °F 67% 30.00 in 10.0 mi SSW 3.5 mph - N/A   Clear
7:54 PM 59.0 °F - 48.9 °F 69% 29.99 in 10.0 mi Calm Calm - N/A   Clear
8:54 PM 59.0 °F - 50.0 °F 72% 29.97 in 10.0 mi South 3.5 mph - N/A   Clear
9:54 PM 59.0 °F - 50.0 °F 72% 29.97 in 10.0 mi Calm Calm - N/A   Scattered Clouds
10:54 PM 60.1 °F - 48.9 °F 67% 29.97 in 10.0 mi Calm Calm - N/A   Partly Cloudy
11:54 PM 59.0 °F - 48.0 °F 67% 29.98 in 10.0 mi SW 5.8 mph - N/A   Mostly Cloudy